Regional Weather Roundup
Issued by NWS

Home | Current Version | Previous Version | Graphics & Text | Print | Product List | Glossary On
Versions: 1 2 3 4 5 6 7 8 9 10 11 12 13 14 15 16 17 18 19 20 21 22 23 24 25 26 27 28 29 30 31 32 33 34 35 36 37 38 39 40 41 42 43 44 45 46 47 48 49 50
000
ASUS43 KLSX 272057
RWRMO

WEATHER SUMMARY FOR MISSOURI
NATIONAL WEATHER SERVICE SPRINGFIELD MO
400 PM CDT MON MAR 27 2017

NOTE: "FAIR" INDICATES FEW OR NO CLOUDS BELOW 12,000 FEET WITH NO
       SIGNIFICANT WEATHER AND/OR OBSTRUCTIONS TO VISIBILITY.
       CURRENT SKY AND/OR WEATHER CONDITIONS ARE NOT AVAILABLE FOR
       CHILLICOTHE AND FARMINGTON.

MOZ001>031-035>038-043-044-053-054-272200-
...NORTHERN AND WESTERN MISSOURI...

CITY           SKY/WX    TMP DP  RH WIND       PRES   REMARKS
KANSAS CTY INT CLOUDY    52  48  86 N13       29.92S
LEE`S SUMMIT   CLOUDY    53  49  86 N12       29.91S
ST JOSEPH      CLOUDY    54  48  80 N12       29.93F
CHILLICOTHE      N/A     51  46  83 N10G17    29.93R

$$
MOZ066>068-077>081-088>096-101>105-272200-
...SOUTHWEST MISSOURI...

CITY           SKY/WX    TMP DP  RH WIND       PRES   REMARKS
SPRINGFIELD    CLOUDY    57  51  80 W12       29.87R
JOPLIN         CLOUDY    52  50  93 NW8       29.92R
BRANSON        PTSUNNY   63  54  72 W8G16     29.86R

$$
MOZ032>034-039>042-045>050-055>058-069>072-272200-
...CENTRAL MISSOURI...

CITY           SKY/WX    TMP DP  RH WIND       PRES   REMARKS
COLUMBIA       CLOUDY    54  54 100 NE5       29.85R FOG
JEFFERSON CITY CLOUDY    58  53  84 E5        29.84R
ROLLA          CLOUDY    61  55  81 N6        29.81S
SEDALIA        CLOUDY    53  51  93 NW10      29.89R
WARRENSBURG    CLOUDY    50  46  87 NW12      29.90S

$$
MOZ051-052-059>065-272200-
...EAST CENTRAL MISSOURI...

CITY           SKY/WX    TMP DP  RH WIND       PRES   REMARKS
ST LOUIS INTL  CLOUDY    56  52  86 N10       29.83S

$$
MOZ072>076-082>087-097>100-106>115-272200-
...SOUTH CENTRAL AND SOUTHEAST MISSOURI...

CITY           SKY/WX    TMP DP  RH WIND       PRES   REMARKS
CAPE GIRARDEAU PTSUNNY   63  56  78 CALM      29.79F
POPLAR BLUFF   SUNNY     65  58  78 NW5       29.79F
WEST PLAINS    PTSUNNY   66  56  70 W9        29.83R

$$



USA.gov is the U.S. government's official web portal to all federal, state and local government web resources and services.